Wetterdaten: Montag, 26.08.2013
Datum Zeit Temperatur Luftfeuchte Luftdruck Regen Wind Richtung Richtung Taupunkt Windchill Windben
26.08.2013 00:00 9,9 C 92 % 1014,4 hPa 0,0 l/m 1,9 km/h (1 Bft) O-SO 112 8,7 C 9,4 C 0,0 km/h (0 Bft)
26.08.2013 00:05 9,8 C 92 % 1014,4 hPa 0,0 l/m 1,0 km/h (0 Bft) O-NO 67 8,6 C 9,4 C 1,6 km/h (1 Bft)
26.08.2013 00:10 9,9 C 92 % 1014,4 hPa 0,0 l/m 0,8 km/h (0 Bft) O 90 8,7 C 9,4 C 0,0 km/h (0 Bft)
26.08.2013 00:15 10,1 C 91 % 1014,4 hPa 0,0 l/m 1,6 km/h (1 Bft) NO 45 8,7 C 9,6 C 4,8 km/h (1 Bft)
26.08.2013 00:20 10,0 C 91 % 1014,6 hPa 0,0 l/m 2,1 km/h (1 Bft) SO 135 8,6 C 9,6 C 4,5 km/h (1 Bft)
26.08.2013 00:25 9,9 C 91 % 1014,6 hPa 0,0 l/m 2,1 km/h (1 Bft) O-SO 112 8,5 C 9,6 C 0,0 km/h (0 Bft)
26.08.2013 00:30 9,7 C 91 % 1014,6 hPa 0,0 l/m 1,3 km/h (1 Bft) W-SW 247 8,3 C 9,6 C 0,0 km/h (0 Bft)
26.08.2013 00:35 9,4 C 91 % 1014,6 hPa 0,0 l/m 0,2 km/h (0 Bft) N-NO 22 8,0 C 9,3 C 0,0 km/h (0 Bft)
26.08.2013 00:40 9,3 C 91 % 1014,4 hPa 0,0 l/m 0,0 km/h (0 Bft) N-NO 22 7,9 C 9,1 C 0,0 km/h (0 Bft)
26.08.2013 00:45 9,3 C 91 % 1014,4 hPa 0,0 l/m 0,2 km/h (0 Bft) O 90 7,9 C 9,1 C 0,0 km/h (0 Bft)
26.08.2013 00:50 9,1 C 91 % 1014,4 hPa 0,0 l/m 0,2 km/h (0 Bft) O 90 7,7 C 8,9 C 0,0 km/h (0 Bft)
26.08.2013 00:55 9,1 C 91 % 1014,4 hPa 0,0 l/m 0,2 km/h (0 Bft) S-SW 202 7,7 C 8,8 C 0,0 km/h (0 Bft)
26.08.2013 01:00 9,0 C 91 % 1014,6 hPa 0,0 l/m 0,2 km/h (0 Bft) N 360 7,6 C 8,8 C 0,0 km/h (0 Bft)
26.08.2013 01:05 8,9 C 92 % 1014,6 hPa 0,0 l/m 0,0 km/h (0 Bft) W-SW 247 7,7 C 8,7 C 0,0 km/h (0 Bft)
26.08.2013 01:10 9,1 C 91 % 1014,6 hPa 0,0 l/m 0,0 km/h (0 Bft) O-SO 112 7,7 C 8,8 C 0,0 km/h (0 Bft)
26.08.2013 01:15 9,2 C 92 % 1014,6 hPa 0,0 l/m 0,2 km/h (0 Bft) S-SW 202 8,0 C 9,0 C 0,0 km/h (0 Bft)
26.08.2013 01:20 9,2 C 92 % 1014,6 hPa 0,0 l/m 0,0 km/h (0 Bft) W 270 8,0 C 9,1 C 0,0 km/h (0 Bft)
26.08.2013 01:25 9,4 C 92 % 1014,6 hPa 0,0 l/m 0,0 km/h (0 Bft) NO 45 8,2 C 9,1 C 0,0 km/h (0 Bft)
26.08.2013 01:30 9,4 C 92 % 1014,6 hPa 0,0 l/m 0,0 km/h (0 Bft) S-SO 157 8,2 C 9,1 C 0,0 km/h (0 Bft)
26.08.2013 01:35 9,4 C 92 % 1014,6 hPa 0,0 l/m 0,0 km/h (0 Bft) S-SW 202 8,2 C 9,1 C 0,0 km/h (0 Bft)
26.08.2013 01:40 9,3 C 92 % 1014,6 hPa 0,0 l/m 0,0 km/h (0 Bft) O-SO 112 8,1 C 9,1 C 0,0 km/h (0 Bft)
26.08.2013 01:45 9,4 C 92 % 1014,6 hPa 0,0 l/m 0,3 km/h (0 Bft) O 90 8,2 C 9,1 C 0,0 km/h (0 Bft)
26.08.2013 01:50 9,3 C 92 % 1014,6 hPa 0,0 l/m 0,3 km/h (0 Bft) NO 45 8,1 C 9,0 C 0,0 km/h (0 Bft)
26.08.2013 01:55 9,2 C 92 % 1014,6 hPa 0,0 l/m 0,2 km/h (0 Bft) N-NO 22 8,0 C 8,9 C 0,0 km/h (0 Bft)
26.08.2013 02:00 9,1 C 92 % 1014,5 hPa 0,0 l/m 0,2 km/h (0 Bft) O 90 7,9 C 8,8 C 0,0 km/h (0 Bft)
26.08.2013 02:05 9,2 C 92 % 1014,5 hPa 0,0 l/m 0,5 km/h (0 Bft) O-NO 67 8,0 C 8,9 C 0,0 km/h (0 Bft)
26.08.2013 02:10 9,3 C 92 % 1014,5 hPa 0,0 l/m 1,3 km/h (1 Bft) O-NO 67 8,1 C 9,0 C 3,4 km/h (1 Bft)
26.08.2013 02:15 9,4 C 92 % 1014,5 hPa 0,0 l/m 2,4 km/h (1 Bft) O-NO 67 8,2 C 9,1 C 3,5 km/h (1 Bft)
26.08.2013 02:20 9,4 C 92 % 1014,6 hPa 0,0 l/m 2,6 km/h (1 Bft) O 90 8,2 C 9,1 C 1,6 km/h (1 Bft)
26.08.2013 02:25 9,4 C 92 % 1014,6 hPa 0,0 l/m 1,3 km/h (1 Bft) NO 45 8,2 C 9,1 C 2,6 km/h (1 Bft)
26.08.2013 02:30 9,5 C 92 % 1014,6 hPa 0,0 l/m 0,5 km/h (0 Bft) NO 45 8,3 C 9,2 C 0,0 km/h (0 Bft)
26.08.2013 02:35 9,3 C 92 % 1014,6 hPa 0,0 l/m 0,3 km/h (0 Bft) S 180 8,1 C 9,2 C 0,0 km/h (0 Bft)
26.08.2013 02:40 9,3 C 92 % 1014,4 hPa 0,0 l/m 0,0 km/h (0 Bft) O-NO 67 8,1 C 9,1 C 0,0 km/h (0 Bft)
26.08.2013 02:45 9,3 C 92 % 1014,4 hPa 0,0 l/m 0,0 km/h (0 Bft) NO 45 8,1 C 9,1 C 0,0 km/h (0 Bft)
26.08.2013 02:50 9,2 C 92 % 1014,4 hPa 0,0 l/m 0,0 km/h (0 Bft) O-NO 67 8,0 C 9,0 C 0,0 km/h (0 Bft)
26.08.2013 02:55 9,2 C 92 % 1014,4 hPa 0,0 l/m 0,0 km/h (0 Bft) O 90 8,0 C 9,1 C 0,0 km/h (0 Bft)
26.08.2013 03:00 9,2 C 92 % 1014,3 hPa 0,0 l/m 0,0 km/h (0 Bft) S 180 8,0 C 9,1 C 0,0 km/h (0 Bft)
26.08.2013 03:05 9,2 C 92 % 1014,3 hPa 0,0 l/m 0,0 km/h (0 Bft) S-SO 157 8,0 C 9,1 C 0,0 km/h (0 Bft)
26.08.2013 03:10 9,2 C 92 % 1014,3 hPa 0,0 l/m 0,3 km/h (0 Bft) O-NO 67 8,0 C 9,0 C 1,6 km/h (1 Bft)
26.08.2013 03:15 9,2 C 92 % 1014,3 hPa 0,0 l/m 0,6 km/h (0 Bft) NO 45 8,0 C 9,0 C 0,0 km/h (0 Bft)
26.08.2013 03:20 9,1 C 92 % 1014,2 hPa 0,0 l/m 0,5 km/h (0 Bft) O-SO 112 7,9 C 8,8 C 0,0 km/h (0 Bft)
26.08.2013 03:25 9,0 C 92 % 1014,2 hPa 0,0 l/m 0,2 km/h (0 Bft) NO 45 7,8 C 8,6 C 0,0 km/h (0 Bft)
26.08.2013 03:30 8,9 C 92 % 1014,2 hPa 0,0 l/m 0,2 km/h (0 Bft) W-SW 247 7,7 C 8,6 C 0,0 km/h (0 Bft)
26.08.2013 03:35 8,8 C 92 % 1014,2 hPa 0,0 l/m 0,0 km/h (0 Bft) SO 135 7,6 C 8,5 C 0,0 km/h (0 Bft)
26.08.2013 03:40 8,9 C 92 % 1014,1 hPa 0,0 l/m 0,5 km/h (0 Bft) NO 45 7,7 C 8,5 C 2,7 km/h (1 Bft)
26.08.2013 03:45 9,0 C 92 % 1014,1 hPa 0,0 l/m 1,8 km/h (1 Bft) NO 45 7,8 C 8,7 C 2,7 km/h (1 Bft)
26.08.2013 03:50 9,0 C 92 % 1014,1 hPa 0,0 l/m 1,9 km/h (1 Bft) O-SO 112 7,8 C 8,8 C 0,0 km/h (0 Bft)
26.08.2013 03:55 9,2 C 93 % 1014,1 hPa 0,0 l/m 2,4 km/h (1 Bft) O-NO 67 8,1 C 9,1 C 6,1 km/h (2 Bft)
26.08.2013 04:00 9,1 C 93 % 1014,1 hPa 0,0 l/m 1,8 km/h (1 Bft) O-SO 112 8,0 C 9,1 C 0,0 km/h (0 Bft)
26.08.2013 04:05 9,2 C 93 % 1014,1 hPa 0,0 l/m 0,5 km/h (0 Bft) O 90 8,1 C 9,1 C 0,0 km/h (0 Bft)
26.08.2013 04:10 9,2 C 93 % 1014,1 hPa 0,0 l/m 0,3 km/h (0 Bft) NO 45 8,1 C 9,1 C 0,0 km/h (0 Bft)
26.08.2013 04:15 9,1 C 93 % 1014,1 hPa 0,0 l/m 0,2 km/h (0 Bft) NO 45 8,0 C 9,0 C 0,0 km/h (0 Bft)
26.08.2013 04:20 9,1 C 93 % 1014,1 hPa 0,0 l/m 0,0 km/h (0 Bft) W-SW 247 8,0 C 8,9 C 0,0 km/h (0 Bft)
26.08.2013 04:25 9,0 C 93 % 1014,1 hPa 0,0 l/m 0,0 km/h (0 Bft) W 270 7,9 C 8,9 C 0,0 km/h (0 Bft)
26.08.2013 04:30 9,0 C 93 % 1014,1 hPa 0,0 l/m 0,0 km/h (0 Bft) O 90 7,9 C 8,8 C 0,0 km/h (0 Bft)
26.08.2013 04:35 9,0 C 93 % 1014,1 hPa 0,0 l/m 0,0 km/h (0 Bft) NO 45 7,9 C 8,7 C 0,0 km/h (0 Bft)
26.08.2013 04:40 9,1 C 93 % 1014,2 hPa 0,0 l/m 0,0 km/h (0 Bft) N-NO 22 8,0 C 8,8 C 0,0 km/h (0 Bft)
26.08.2013 04:45 9,0 C 93 % 1014,2 hPa 0,0 l/m 0,0 km/h (0 Bft) S 180 7,9 C 8,8 C 0,0 km/h (0 Bft)
26.08.2013 04:50 9,0 C 93 % 1014,2 hPa 0,0 l/m 0,0 km/h (0 Bft) SO 135 7,9 C 8,9 C 0,0 km/h (0 Bft)
26.08.2013 04:55 9,1 C 93 % 1014,2 hPa 0,0 l/m 0,0 km/h (0 Bft) O 90 8,0 C 8,9 C 0,0 km/h (0 Bft)
26.08.2013 05:00 9,1 C 93 % 1014,0 hPa 0,0 l/m 0,0 km/h (0 Bft) W 270 8,0 C 8,9 C 0,0 km/h (0 Bft)
26.08.2013 05:05 9,0 C 93 % 1014,0 hPa 0,0 l/m 0,0 km/h (0 Bft) W-NW 292 7,9 C 8,9 C 0,0 km/h (0 Bft)
26.08.2013 05:10 9,0 C 93 % 1014,0 hPa 0,0 l/m 0,0 km/h (0 Bft) O 90 7,9 C 8,8 C 0,0 km/h (0 Bft)
26.08.2013 05:15 9,1 C 93 % 1014,0 hPa 0,0 l/m 0,0 km/h (0 Bft) NO 45 8,0 C 8,9 C 0,0 km/h (0 Bft)
26.08.2013 05:20 9,2 C 93 % 1013,9 hPa 0,0 l/m 0,0 km/h (0 Bft) O-SO 112 8,1 C 9,1 C 0,0 km/h (0 Bft)
26.08.2013 05:25 9,4 C 93 % 1013,9 hPa 0,0 l/m 0,0 km/h (0 Bft) O-NO 67 8,3 C 9,1 C 0,0 km/h (0 Bft)
26.08.2013 05:30 9,4 C 93 % 1013,9 hPa 0,0 l/m 0,0 km/h (0 Bft) O-NO 67 8,3 C 9,1 C 0,0 km/h (0 Bft)
26.08.2013 05:35 9,3 C 93 % 1013,9 hPa 0,0 l/m 0,0 km/h (0 Bft) S-SO 157 8,2 C 9,1 C 0,0 km/h (0 Bft)
26.08.2013 05:40 9,3 C 93 % 1013,9 hPa 0,0 l/m 0,0 km/h (0 Bft) O 90 8,2 C 9,1 C 0,0 km/h (0 Bft)
26.08.2013 05:45 9,2 C 93 % 1013,9 hPa 0,0 l/m 0,0 km/h (0 Bft) SO 135 8,1 C 9,1 C 0,0 km/h (0 Bft)
26.08.2013 05:50 9,2 C 93 % 1013,9 hPa 0,0 l/m 0,0 km/h (0 Bft) W-SW 247 8,1 C 9,0 C 0,0 km/h (0 Bft)
26.08.2013 05:55 9,2 C 93 % 1013,9 hPa 0,0 l/m 0,0 km/h (0 Bft) W-SW 247 8,1 C 9,0 C 0,0 km/h (0 Bft)
26.08.2013 06:00 9,3 C 93 % 1014,1 hPa 0,0 l/m 0,0 km/h (0 Bft) NO 45 8,2 C 9,0 C 0,0 km/h (0 Bft)
26.08.2013 06:05 9,2 C 93 % 1014,1 hPa 0,0 l/m 0,0 km/h (0 Bft) SO 135 8,1 C 9,0 C 0,0 km/h (0 Bft)
26.08.2013 06:10 9,2 C 93 % 1014,1 hPa 0,0 l/m 0,0 km/h (0 Bft) N-NO 22 8,1 C 9,0 C 0,0 km/h (0 Bft)
26.08.2013 06:15 9,3 C 93 % 1014,1 hPa 0,0 l/m 0,0 km/h (0 Bft) N-NO 22 8,2 C 9,0 C 0,0 km/h (0 Bft)
26.08.2013 06:20 9,2 C 93 % 1014,3 hPa 0,0 l/m 0,0 km/h (0 Bft) S 180 8,1 C 9,0 C 0,0 km/h (0 Bft)
26.08.2013 06:25 9,2 C 93 % 1014,3 hPa 0,0 l/m 0,0 km/h (0 Bft) O-SO 112 8,1 C 9,1 C 0,0 km/h (0 Bft)
26.08.2013 06:30 9,2 C 93 % 1014,3 hPa 0,0 l/m 0,0 km/h (0 Bft) O-SO 112 8,1 C 9,1 C 0,0 km/h (0 Bft)
26.08.2013 06:35 9,3 C 93 % 1014,3 hPa 0,0 l/m 0,0 km/h (0 Bft) O-NO 67 8,2 C 9,1 C 0,0 km/h (0 Bft)
26.08.2013 06:40 9,3 C 93 % 1014,3 hPa 0,0 l/m 0,0 km/h (0 Bft) W-SW 247 8,2 C 9,1 C 0,0 km/h (0 Bft)
26.08.2013 06:45 9,3 C 93 % 1014,3 hPa 0,0 l/m 0,3 km/h (0 Bft) NO 45 8,2 C 9,1 C 0,0 km/h (0 Bft)
26.08.2013 06:50 9,3 C 93 % 1014,3 hPa 0,0 l/m 0,3 km/h (0 Bft) O-SO 112 8,2 C 9,1 C 0,0 km/h (0 Bft)
26.08.2013 06:55 9,3 C 93 % 1014,3 hPa 0,0 l/m 0,0 km/h (0 Bft) SW 225 8,2 C 9,1 C 0,0 km/h (0 Bft)
26.08.2013 07:00 9,3 C 93 % 1014,3 hPa 0,0 l/m 0,0 km/h (0 Bft) S-SO 157 8,2 C 9,1 C 0,0 km/h (0 Bft)
26.08.2013 07:05 9,3 C 93 % 1014,3 hPa 0,0 l/m 0,2 km/h (0 Bft) W-NW 292 8,2 C 9,1 C 0,0 km/h (0 Bft)
26.08.2013 07:10 9,3 C 93 % 1014,3 hPa 0,0 l/m 0,2 km/h (0 Bft) NO 45 8,2 C 9,1 C 0,0 km/h (0 Bft)
26.08.2013 07:15 9,5 C 93 % 1014,3 hPa 0,0 l/m 0,0 km/h (0 Bft) SO 135 8,4 C 9,3 C 0,0 km/h (0 Bft)
26.08.2013 07:20 9,7 C 93 % 1014,4 hPa 0,0 l/m 0,0 km/h (0 Bft) O-NO 67 8,6 C 9,4 C 0,0 km/h (0 Bft)
26.08.2013 07:25 10,1 C 93 % 1014,4 hPa 0,0 l/m 0,0 km/h (0 Bft) S-SW 202 9,0 C 9,6 C 0,0 km/h (0 Bft)
26.08.2013 07:30 10,2 C 93 % 1014,4 hPa 0,0 l/m 0,0 km/h (0 Bft) SW 225 9,1 C 9,9 C 0,0 km/h (0 Bft)
26.08.2013 07:35 10,5 C 93 % 1014,4 hPa 0,0 l/m 0,0 km/h (0 Bft) S 180 9,4 C 10,1 C 0,0 km/h (0 Bft)
26.08.2013 07:40 10,6 C 93 % 1014,6 hPa 0,0 l/m 0,0 km/h (0 Bft) S 180 9,5 C 10,2 C 0,0 km/h (0 Bft)
26.08.2013 07:45 10,7 C 93 % 1014,6 hPa 0,0 l/m 0,0 km/h (0 Bft) NW 315 9,6 C 10,4 C 0,0 km/h (0 Bft)
26.08.2013 07:50 10,9 C 93 % 1014,6 hPa 0,0 l/m 0,0 km/h (0 Bft) W-SW 247 9,8 C 10,6 C 0,0 km/h (0 Bft)
26.08.2013 07:55 11,1 C 92 % 1014,6 hPa 0,0 l/m 0,0 km/h (0 Bft) W-SW 247 9,8 C 10,7 C 0,0 km/h (0 Bft)
26.08.2013 08:00 11,2 C 92 % 1014,6 hPa 0,0 l/m 0,0 km/h (0 Bft) S-SW 202 9,9 C 10,9 C 0,0 km/h (0 Bft)
26.08.2013 08:05 11,5 C 92 % 1014,6 hPa 0,0 l/m 0,0 km/h (0 Bft) S 180 10,2 C 11,1 C 0,0 km/h (0 Bft)
26.08.2013 08:10 11,7 C 92 % 1014,6 hPa 0,0 l/m 0,0 km/h (0 Bft) W-NW 292 10,4 C 11,3 C 0,0 km/h (0 Bft)
26.08.2013 08:15 12,1 C 92 % 1014,6 hPa 0,0 l/m 0,0 km/h (0 Bft) SO 135 10,8 C 11,6 C 2,3 km/h (1 Bft)
26.08.2013 08:20 12,4 C 92 % 1014,9 hPa 0,0 l/m 0,5 km/h (0 Bft) S 180 11,1 C 11,8 C 2,1 km/h (1 Bft)
26.08.2013 08:25 12,6 C 91 % 1014,9 hPa 0,0 l/m 1,4 km/h (1 Bft) S-SW 202 11,2 C 11,8 C 0,0 km/h (0 Bft)
26.08.2013 08:30 12,9 C 90 % 1014,9 hPa 0,0 l/m 1,3 km/h (1 Bft) O-SO 112 11,3 C 11,9 C 0,0 km/h (0 Bft)
26.08.2013 08:35 13,2 C 88 % 1014,9 hPa 0,0 l/m 0,2 km/h (0 Bft) W 270 11,3 C 12,5 C 0,0 km/h (0 Bft)
26.08.2013 08:40 13,4 C 88 % 1015,1 hPa 0,0 l/m 0,0 km/h (0 Bft) W-NW 292 11,5 C 12,8 C 0,0 km/h (0 Bft)
26.08.2013 08:45 13,9 C 86 % 1015,1 hPa 0,0 l/m 0,2 km/h (0 Bft) SW 225 11,6 C 13,4 C 0,0 km/h (0 Bft)
26.08.2013 08:50 14,5 C 85 % 1015,1 hPa 0,0 l/m 0,3 km/h (0 Bft) W-SW 247 12,0 C 13,9 C 2,6 km/h (1 Bft)
26.08.2013 08:55 15,1 C 83 % 1015,1 hPa 0,0 l/m 0,8 km/h (0 Bft) W-SW 247 12,2 C 14,9 C 0,0 km/h (0 Bft)
26.08.2013 09:00 15,3 C 79 % 1015,4 hPa 0,0 l/m 0,6 km/h (0 Bft) O 90 11,7 C 15,6 C 0,0 km/h (0 Bft)
26.08.2013 09:05 15,6 C 76 % 1015,4 hPa 0,0 l/m 0,0 km/h (0 Bft) N-NW 337 11,4 C 16,8 C 0,0 km/h (0 Bft)
26.08.2013 09:10 15,5 C 75 % 1015,4 hPa 0,0 l/m 0,0 km/h (0 Bft) W-SW 247 11,1 C 17,3 C 0,0 km/h (0 Bft)
26.08.2013 09:15 16,0 C 74 % 1015,4 hPa 0,0 l/m 0,0 km/h (0 Bft) W-NW 292 11,4 C 17,8 C 0,0 km/h (0 Bft)
26.08.2013 09:20 15,9 C 74 % 1015,2 hPa 0,0 l/m 0,0 km/h (0 Bft) N-NW 337 11,3 C 17,9 C 0,0 km/h (0 Bft)
26.08.2013 09:25 16,0 C 70 % 1015,2 hPa 0,0 l/m 0,0 km/h (0 Bft) S-SW 202 10,5 C 18,1 C 0,0 km/h (0 Bft)
26.08.2013 09:30 16,2 C 70 % 1015,2 hPa 0,0 l/m 0,0 km/h (0 Bft) N-NW 337 10,7 C 18,2 C 0,0 km/h (0 Bft)
26.08.2013 09:35 15,7 C 68 % 1015,2 hPa 0,0 l/m 0,5 km/h (0 Bft) W-NW 292 9,8 C 17,9 C 0,0 km/h (0 Bft)
26.08.2013 09:40 16,3 C 69 % 1015,0 hPa 0,0 l/m 0,5 km/h (0 Bft) S-SW 202 10,6 C 17,9 C 0,0 km/h (0 Bft)
26.08.2013 09:45 16,3 C 66 % 1015,0 hPa 0,0 l/m 0,3 km/h (0 Bft) NO 45 9,9 C 18,0 C 3,2 km/h (1 Bft)
26.08.2013 09:50 16,0 C 64 % 1015,0 hPa 0,0 l/m 1,0 km/h (0 Bft) NW 315 9,2 C 18,0 C 2,1 km/h (1 Bft)
26.08.2013 09:55 16,6 C 65 % 1015,0 hPa 0,0 l/m 2,1 km/h (1 Bft) NW 315 10,0 C 17,9 C 1,6 km/h (1 Bft)
26.08.2013 10:00 16,6 C 63 % 1015,9 hPa 0,0 l/m 1,9 km/h (1 Bft) S-SW 202 9,5 C 18,0 C 2,1 km/h (1 Bft)
26.08.2013 10:05 17,0 C 64 % 1015,9 hPa 0,0 l/m 1,3 km/h (1 Bft) S-SW 202 10,1 C 18,3 C 0,0 km/h (0 Bft)
26.08.2013 10:10 16,9 C 64 % 1015,9 hPa 0,0 l/m 1,0 km/h (0 Bft) W-NW 292 10,0 C 18,5 C 2,9 km/h (1 Bft)
26.08.2013 10:15 16,5 C 62 % 1015,9 hPa 0,0 l/m 1,6 km/h (1 Bft) N-NO 22 9,2 C 18,5 C 6,6 km/h (2 Bft)
26.08.2013 10:20 16,8 C 64 % 1016,2 hPa 0,0 l/m 1,9 km/h (1 Bft) W-SW 247 10,0 C 18,3 C 0,0 km/h (0 Bft)
26.08.2013 10:25 16,4 C 63 % 1016,2 hPa 0,0 l/m 3,1 km/h (1 Bft) N 360 9,3 C 18,2 C 7,6 km/h (2 Bft)
26.08.2013 10:30 16,6 C 62 % 1016,2 hPa 0,0 l/m 2,9 km/h (1 Bft) W-NW 292 9,3 C 18,2 C 4,3 km/h (1 Bft)
26.08.2013 10:35 16,7 C 64 % 1016,2 hPa 0,0 l/m 3,4 km/h (1 Bft) W-SW 247 9,9 C 18,1 C 8,7 km/h (2 Bft)
26.08.2013 10:40 16,8 C 63 % 1016,3 hPa 0,0 l/m 4,2 km/h (1 Bft) N-NW 337 9,7 C 17,9 C 5,1 km/h (1 Bft)
26.08.2013 10:45 17,0 C 65 % 1016,3 hPa 0,0 l/m 4,2 km/h (1 Bft) NW 315 10,4 C 18,0 C 3,4 km/h (1 Bft)
26.08.2013 10:50 17,0 C 66 % 1016,3 hPa 0,0 l/m 3,9 km/h (1 Bft) N 360 10,6 C 17,9 C 5,0 km/h (1 Bft)
26.08.2013 10:55 16,7 C 66 % 1016,3 hPa 0,0 l/m 3,1 km/h (1 Bft) NO 45 10,3 C 17,9 C 0,0 km/h (0 Bft)
26.08.2013 11:00 16,6 C 66 % 1016,4 hPa 0,0 l/m 2,4 km/h (1 Bft) S 180 10,2 C 18,1 C 5,6 km/h (1 Bft)
26.08.2013 11:05 16,1 C 67 % 1016,4 hPa 0,0 l/m 2,6 km/h (1 Bft) W-NW 292 10,0 C 18,0 C 1,9 km/h (1 Bft)
26.08.2013 11:10 15,9 C 68 % 1016,4 hPa 0,0 l/m 3,5 km/h (1 Bft) W 270 10,0 C 17,7 C 3,9 km/h (1 Bft)
26.08.2013 11:15 15,9 C 69 % 1016,4 hPa 0,0 l/m 4,0 km/h (1 Bft) W-NW 292 10,2 C 17,5 C 9,7 km/h (2 Bft)
26.08.2013 11:20 15,9 C 69 % 1016,5 hPa 0,0 l/m 3,9 km/h (1 Bft) N 360 10,2 C 17,3 C 5,0 km/h (1 Bft)
26.08.2013 11:25 16,3 C 67 % 1016,5 hPa 0,0 l/m 4,2 km/h (1 Bft) N 360 10,2 C 17,5 C 8,7 km/h (2 Bft)
26.08.2013 11:30 16,4 C 67 % 1016,5 hPa 0,0 l/m 4,7 km/h (1 Bft) N-NO 22 10,3 C 17,5 C 4,8 km/h (1 Bft)
26.08.2013 11:35 17,0 C 67 % 1016,5 hPa 0,0 l/m 4,3 km/h (1 Bft) W-NW 292 10,8 C 17,8 C 11,1 km/h (2 Bft)
26.08.2013 11:40 16,5 C 65 % 1016,6 hPa 0,0 l/m 4,3 km/h (1 Bft) W-NW 292 9,9 C 18,1 C 7,6 km/h (2 Bft)
26.08.2013 11:45 16,7 C 65 % 1016,6 hPa 0,0 l/m 4,7 km/h (1 Bft) N-NO 22 10,1 C 18,1 C 3,4 km/h (1 Bft)
26.08.2013 11:50 16,9 C 65 % 1016,6 hPa 0,0 l/m 4,2 km/h (1 Bft) NW 315 10,3 C 18,2 C 8,5 km/h (2 Bft)
26.08.2013 11:55 16,6 C 63 % 1016,6 hPa 0,0 l/m 4,2 km/h (1 Bft) W-NW 292 9,5 C 18,2 C 3,9 km/h (1 Bft)
26.08.2013 12:00 16,7 C 63 % 1016,6 hPa 0,0 l/m 4,8 km/h (1 Bft) O-NO 67 9,6 C 18,3 C 7,1 km/h (2 Bft)
26.08.2013 12:05 16,8 C 65 % 1016,6 hPa 0,0 l/m 4,3 km/h (1 Bft) N-NW 337 10,2 C 18,4 C 4,8 km/h (1 Bft)
26.08.2013 12:10 16,8 C 66 % 1016,6 hPa 0,0 l/m 3,5 km/h (1 Bft) N 360 10,4 C 18,6 C 5,3 km/h (1 Bft)
26.08.2013 12:15 16,6 C 66 % 1016,6 hPa 0,0 l/m 3,4 km/h (1 Bft) W-NW 292 10,2 C 18,6 C 6,0 km/h (2 Bft)
26.08.2013 12:20 17,0 C 66 % 1016,7 hPa 0,0 l/m 4,0 km/h (1 Bft) W-NW 292 10,6 C 18,6 C 6,1 km/h (2 Bft)
26.08.2013 12:25 17,0 C 65 % 1016,7 hPa 0,0 l/m 3,7 km/h (1 Bft) N-NW 337 10,4 C 18,5 C 4,5 km/h (1 Bft)
26.08.2013 12:30 17,3 C 61 % 1016,7 hPa 0,0 l/m 3,5 km/h (1 Bft) NW 315 9,7 C 18,6 C 5,3 km/h (1 Bft)
26.08.2013 12:35 17,6 C 61 % 1016,7 hPa 0,0 l/m 3,9 km/h (1 Bft) NW 315 10,0 C 19,0 C 5,6 km/h (1 Bft)
26.08.2013 12:40 17,8 C 59 % 1016,7 hPa 0,0 l/m 3,9 km/h (1 Bft) N 360 9,7 C 19,3 C 5,5 km/h (1 Bft)
26.08.2013 12:45 17,8 C 59 % 1016,7 hPa 0,0 l/m 3,4 km/h (1 Bft) O-NO 67 9,7 C 19,7 C 0,0 km/h (0 Bft)
26.08.2013 12:50 17,5 C 62 % 1016,7 hPa 0,0 l/m 3,9 km/h (1 Bft) N 360 10,1 C 19,9 C 2,4 km/h (1 Bft)
26.08.2013 12:55 18,0 C 59 % 1016,7 hPa 0,0 l/m 3,1 km/h (1 Bft) S-SO 157 9,9 C 20,2 C 7,1 km/h (2 Bft)
26.08.2013 13:00 18,1 C 60 % 1016,6 hPa 0,0 l/m 3,5 km/h (1 Bft) W-NW 292 10,2 C 20,1 C 10,5 km/h (2 Bft)
26.08.2013 13:05 18,1 C 60 % 1016,6 hPa 0,0 l/m 4,0 km/h (1 Bft) W 270 10,2 C 19,8 C 1,9 km/h (1 Bft)
26.08.2013 13:10 18,8 C 59 % 1016,6 hPa 0,0 l/m 3,4 km/h (1 Bft) N 360 10,6 C 20,2 C 2,9 km/h (1 Bft)
26.08.2013 13:15 19,0 C 53 % 1016,6 hPa 0,0 l/m 3,7 km/h (1 Bft) NO 45 9,2 C 21,2 C 11,6 km/h (2 Bft)
26.08.2013 13:20 18,5 C 56 % 1016,9 hPa 0,0 l/m 5,3 km/h (1 Bft) N 360 9,6 C 21,2 C 6,0 km/h (2 Bft)
26.08.2013 13:25 17,9 C 57 % 1016,9 hPa 0,0 l/m 5,3 km/h (1 Bft) W-NW 292 9,3 C 20,6 C 11,6 km/h (2 Bft)
26.08.2013 13:30 17,6 C 59 % 1016,9 hPa 0,0 l/m 4,5 km/h (1 Bft) NO 45 9,5 C 20,3 C 8,4 km/h (2 Bft)
26.08.2013 13:35 17,5 C 60 % 1016,9 hPa 0,0 l/m 4,3 km/h (1 Bft) N 360 9,6 C 19,4 C 7,4 km/h (2 Bft)
26.08.2013 13:40 17,6 C 59 % 1016,8 hPa 0,0 l/m 4,2 km/h (1 Bft) N-NW 337 9,5 C 19,2 C 5,6 km/h (1 Bft)
26.08.2013 13:45 17,9 C 60 % 1016,8 hPa 0,0 l/m 4,2 km/h (1 Bft) NO 45 10,0 C 19,0 C 3,2 km/h (1 Bft)
26.08.2013 13:50 17,9 C 58 % 1016,8 hPa 0,0 l/m 4,0 km/h (1 Bft) W-NW 292 9,5 C 19,2 C 5,5 km/h (1 Bft)
26.08.2013 13:55 18,0 C 59 % 1016,8 hPa 0,0 l/m 3,2 km/h (1 Bft) NW 315 9,9 C 19,3 C 2,4 km/h (1 Bft)
26.08.2013 14:00 17,9 C 60 % 1016,8 hPa 0,0 l/m 2,3 km/h (1 Bft) NW 315 10,0 C 19,4 C 4,7 km/h (1 Bft)
26.08.2013 14:05 17,5 C 60 % 1016,8 hPa 0,0 l/m 3,7 km/h (1 Bft) W-NW 292 9,6 C 19,0 C 4,5 km/h (1 Bft)
26.08.2013 14:10 17,7 C 60 % 1016,8 hPa 0,0 l/m 4,3 km/h (1 Bft) W 270 9,8 C 18,9 C 3,7 km/h (1 Bft)
26.08.2013 14:15 17,6 C 60 % 1016,8 hPa 0,0 l/m 4,0 km/h (1 Bft) W-NW 292 9,7 C 19,2 C 13,7 km/h (3 Bft)
26.08.2013 14:20 17,9 C 59 % 1017,1 hPa 0,0 l/m 4,3 km/h (1 Bft) N-NW 337 9,8 C 19,3 C 7,2 km/h (2 Bft)
26.08.2013 14:25 17,9 C 59 % 1017,1 hPa 0,0 l/m 4,3 km/h (1 Bft) N 360 9,8 C 19,5 C 4,5 km/h (1 Bft)
26.08.2013 14:30 17,8 C 59 % 1017,1 hPa 0,0 l/m 3,7 km/h (1 Bft) N 360 9,7 C 19,7 C 5,3 km/h (1 Bft)
26.08.2013 14:35 17,6 C 59 % 1017,1 hPa 0,0 l/m 4,2 km/h (1 Bft) O-NO 67 9,5 C 19,6 C 6,1 km/h (2 Bft)
26.08.2013 14:40 18,1 C 59 % 1016,7 hPa 0,0 l/m 4,3 km/h (1 Bft) W-NW 292 10,0 C 19,7 C 6,4 km/h (2 Bft)
26.08.2013 14:45 18,6 C 59 % 1016,7 hPa 0,0 l/m 3,5 km/h (1 Bft) N-NW 337 10,4 C 20,2 C 6,1 km/h (2 Bft)
26.08.2013 14:50 18,3 C 57 % 1016,7 hPa 0,0 l/m 4,8 km/h (1 Bft) N 360 9,6 C 20,3 C 8,9 km/h (2 Bft)
26.08.2013 14:55 17,9 C 59 % 1016,7 hPa 0,0 l/m 4,7 km/h (1 Bft) NW 315 9,8 C 20,3 C 4,0 km/h (1 Bft)
26.08.2013 15:00 18,4 C 59 % 1016,6 hPa 0,0 l/m 3,9 km/h (1 Bft) N-NW 337 10,2 C 20,5 C 7,4 km/h (2 Bft)
26.08.2013 15:05 17,8 C 58 % 1016,6 hPa 0,0 l/m 5,0 km/h (1 Bft) N-NW 337 9,4 C 20,3 C 6,1 km/h (2 Bft)
26.08.2013 15:10 17,6 C 60 % 1016,6 hPa 0,0 l/m 5,5 km/h (1 Bft) N-NW 337 9,7 C 19,9 C 6,4 km/h (2 Bft)
26.08.2013 15:15 17,6 C 61 % 1016,6 hPa 0,0 l/m 4,5 km/h (1 Bft) N-NW 337 10,0 C 19,6 C 3,7 km/h (1 Bft)
26.08.2013 15:20 17,5 C 60 % 1016,6 hPa 0,0 l/m 4,3 km/h (1 Bft) N-NW 337 9,6 C 19,4 C 5,6 km/h (1 Bft)
26.08.2013 15:25 17,3 C 63 % 1016,6 hPa 0,0 l/m 4,3 km/h (1 Bft) W-NW 292 10,2 C 19,2 C 1,9 km/h (1 Bft)
26.08.2013 15:30 17,4 C 63 % 1016,6 hPa 0,0 l/m 4,0 km/h (1 Bft) N 360 10,3 C 19,0 C 2,9 km/h (1 Bft)
26.08.2013 15:35 17,2 C 63 % 1016,6 hPa 0,0 l/m 4,0 km/h (1 Bft) N-NW 337 10,1 C 18,8 C 6,0 km/h (2 Bft)
26.08.2013 15:40 17,1 C 63 % 1016,7 hPa 0,0 l/m 4,7 km/h (1 Bft) W-NW 292 10,0 C 18,5 C 7,9 km/h (2 Bft)
26.08.2013 15:45 17,2 C 60 % 1016,7 hPa 0,0 l/m 5,6 km/h (1 Bft) O 90 9,4 C 18,3 C 4,8 km/h (1 Bft)
26.08.2013 15:50 17,4 C 61 % 1016,7 hPa 0,0 l/m 5,6 km/h (1 Bft) W-NW 292 9,8 C 18,3 C 3,5 km/h (1 Bft)
26.08.2013 15:55 17,4 C 61 % 1016,7 hPa 0,0 l/m 4,2 km/h (1 Bft) N 360 9,8 C 18,5 C 7,7 km/h (2 Bft)
26.08.2013 16:00 18,0 C 63 % 1016,8 hPa 0,0 l/m 3,5 km/h (1 Bft) O 90 10,8 C 18,8 C 5,1 km/h (1 Bft)
26.08.2013 16:05 17,7 C 61 % 1016,8 hPa 0,0 l/m 4,0 km/h (1 Bft) NW 315 10,1 C 19,0 C 6,8 km/h (2 Bft)
26.08.2013 16:10 17,8 C 63 % 1016,8 hPa 0,0 l/m 4,0 km/h (1 Bft) N-NW 337 10,7 C 19,1 C 2,1 km/h (1 Bft)
26.08.2013 16:15 17,9 C 63 % 1016,8 hPa 0,0 l/m 3,5 km/h (1 Bft) W 270 10,8 C 19,5 C 3,9 km/h (1 Bft)
26.08.2013 16:20 17,8 C 63 % 1016,9 hPa 0,0 l/m 3,1 km/h (1 Bft) O 90 10,7 C 19,6 C 1,6 km/h (1 Bft)
26.08.2013 16:25 18,4 C 62 % 1016,9 hPa 0,0 l/m 3,4 km/h (1 Bft) W-NW 292 11,0 C 19,9 C 3,2 km/h (1 Bft)
26.08.2013 16:30 18,6 C 62 % 1016,9 hPa 0,0 l/m 2,9 km/h (1 Bft) W 270 11,2 C 20,5 C 4,8 km/h (1 Bft)
26.08.2013 16:35 17,7 C 62 % 1016,9 hPa 0,0 l/m 3,2 km/h (1 Bft) NW 315 10,3 C 20,0 C 7,7 km/h (2 Bft)
26.08.2013 16:40 17,1 C 63 % 1016,8 hPa 0,0 l/m 4,0 km/h (1 Bft) N 360 10,0 C 19,4 C 2,6 km/h (1 Bft)
26.08.2013 16:45 16,8 C 64 % 1016,8 hPa 0,0 l/m 4,8 km/h (1 Bft) W 270 10,0 C 18,6 C 6,6 km/h (2 Bft)
26.08.2013 16:50 16,5 C 65 % 1016,8 hPa 0,0 l/m 4,5 km/h (1 Bft) W-NW 292 9,9 C 18,1 C 2,3 km/h (1 Bft)
26.08.2013 16:55 16,4 C 66 % 1016,8 hPa 0,0 l/m 4,7 km/h (1 Bft) N 360 10,0 C 17,5 C 6,0 km/h (2 Bft)
26.08.2013 17:00 16,5 C 68 % 1016,1 hPa 0,0 l/m 4,0 km/h (1 Bft) O 90 10,6 C 17,4 C 3,1 km/h (1 Bft)
26.08.2013 17:05 16,3 C 69 % 1016,1 hPa 0,0 l/m 4,2 km/h (1 Bft) W-NW 292 10,6 C 17,3 C 8,2 km/h (2 Bft)
26.08.2013 17:10 16,6 C 69 % 1016,1 hPa 0,0 l/m 3,4 km/h (1 Bft) W-SW 247 10,9 C 17,2 C 2,6 km/h (1 Bft)
26.08.2013 17:15 16,3 C 68 % 1016,1 hPa 0,0 l/m 3,4 km/h (1 Bft) NW 315 10,4 C 17,3 C 2,3 km/h (1 Bft)
26.08.2013 17:20 16,3 C 69 % 1016,2 hPa 0,0 l/m 3,5 km/h (1 Bft) NW 315 10,6 C 17,3 C 4,8 km/h (1 Bft)
26.08.2013 17:25 16,3 C 69 % 1016,2 hPa 0,0 l/m 3,5 km/h (1 Bft) N-NW 337 10,6 C 17,4 C 6,1 km/h (2 Bft)
26.08.2013 17:30 16,3 C 70 % 1016,2 hPa 0,0 l/m 3,4 km/h (1 Bft) N-NW 337 10,8 C 17,4 C 4,0 km/h (1 Bft)
26.08.2013 17:35 16,0 C 68 % 1016,2 hPa 0,0 l/m 3,9 km/h (1 Bft) N 360 10,1 C 17,0 C 4,2 km/h (1 Bft)
26.08.2013 17:40 16,0 C 68 % 1016,3 hPa 0,0 l/m 4,0 km/h (1 Bft) N-NW 337 10,1 C 16,9 C 3,9 km/h (1 Bft)
26.08.2013 17:45 16,0 C 69 % 1016,3 hPa 0,0 l/m 3,1 km/h (1 Bft) W 270 10,3 C 16,7 C 0,0 km/h (0 Bft)
26.08.2013 17:50 16,0 C 69 % 1016,3 hPa 0,0 l/m 2,4 km/h (1 Bft) W-NW 292 10,3 C 16,7 C 4,2 km/h (1 Bft)
26.08.2013 17:55 15,9 C 70 % 1016,3 hPa 0,0 l/m 3,2 km/h (1 Bft) W-NW 292 10,4 C 16,6 C 4,7 km/h (1 Bft)
26.08.2013 18:00 15,8 C 70 % 1016,2 hPa 0,0 l/m 3,7 km/h (1 Bft) N-NW 337 10,3 C 16,6 C 3,9 km/h (1 Bft)
26.08.2013 18:05 15,4 C 72 % 1016,2 hPa 0,0 l/m 3,4 km/h (1 Bft) NW 315 10,4 C 16,3 C 3,1 km/h (1 Bft)
26.08.2013 18:10 15,2 C 73 % 1016,2 hPa 0,0 l/m 3,7 km/h (1 Bft) W-NW 292 10,4 C 16,1 C 6,0 km/h (2 Bft)
26.08.2013 18:15 15,1 C 73 % 1016,2 hPa 0,0 l/m 3,9 km/h (1 Bft) W-NW 292 10,3 C 15,9 C 3,1 km/h (1 Bft)
26.08.2013 18:20 15,2 C 73 % 1016,2 hPa 0,0 l/m 3,9 km/h (1 Bft) N-NO 22 10,4 C 16,6 C 0,0 km/h (0 Bft)
26.08.2013 18:25 15,4 C 72 % 1016,2 hPa 0,0 l/m 3,7 km/h (1 Bft) N 360 10,4 C 18,4 C 4,5 km/h (1 Bft)
26.08.2013 18:30 15,3 C 72 % 1016,2 hPa 0,0 l/m 3,7 km/h (1 Bft) N-NO 22 10,3 C 19,2 C 1,6 km/h (1 Bft)
26.08.2013 18:35 15,1 C 72 % 1016,2 hPa 0,0 l/m 4,2 km/h (1 Bft) NW 315 10,1 C 18,5 C 5,5 km/h (1 Bft)
26.08.2013 18:40 14,9 C 73 % 1016,1 hPa 0,0 l/m 3,7 km/h (1 Bft) N-NW 337 10,1 C 17,8 C 4,2 km/h (1 Bft)
26.08.2013 18:45 14,9 C 73 % 1016,1 hPa 0,0 l/m 3,7 km/h (1 Bft) N-NW 337 10,1 C 17,7 C 6,4 km/h (2 Bft)
26.08.2013 18:50 14,9 C 74 % 1016,1 hPa 0,0 l/m 3,7 km/h (1 Bft) N 360 10,3 C 18,4 C 6,1 km/h (2 Bft)
26.08.2013 18:55 14,9 C 74 % 1016,1 hPa 0,0 l/m 4,0 km/h (1 Bft) W-NW 292 10,3 C 19,0 C 4,8 km/h (1 Bft)
26.08.2013 19:00 14,9 C 74 % 1016,0 hPa 0,0 l/m 4,0 km/h (1 Bft) W-NW 292 10,3 C 18,9 C 5,1 km/h (1 Bft)
26.08.2013 19:05 14,7 C 74 % 1016,0 hPa 0,0 l/m 4,2 km/h (1 Bft) W-NW 292 10,1 C 18,3 C 5,6 km/h (1 Bft)
26.08.2013 19:10 14,5 C 75 % 1016,0 hPa 0,0 l/m 3,9 km/h (1 Bft) N-NW 337 10,1 C 17,2 C 2,1 km/h (1 Bft)
26.08.2013 19:15 14,0 C 76 % 1016,0 hPa 0,0 l/m 3,2 km/h (1 Bft) N-NW 337 9,8 C 16,0 C 5,1 km/h (1 Bft)
26.08.2013 19:20 13,9 C 77 % 1015,9 hPa 0,0 l/m 2,6 km/h (1 Bft) O-SO 112 9,9 C 15,3 C 0,0 km/h (0 Bft)
26.08.2013 19:25 13,6 C 78 % 1015,9 hPa 0,0 l/m 2,4 km/h (1 Bft) N 360 9,8 C 14,6 C 0,0 km/h (0 Bft)
26.08.2013 19:30 13,4 C 78 % 1015,9 hPa 0,0 l/m 1,8 km/h (1 Bft) O 90 9,6 C 14,2 C 2,1 km/h (1 Bft)
26.08.2013 19:35 13,2 C 78 % 1015,9 hPa 0,0 l/m 1,3 km/h (1 Bft) O 90 9,4 C 13,7 C 0,0 km/h (0 Bft)
26.08.2013 19:40 13,1 C 79 % 1016,1 hPa 0,0 l/m 1,8 km/h (1 Bft) NO 45 9,5 C 13,5 C 3,2 km/h (1 Bft)
26.08.2013 19:45 13,0 C 79 % 1016,1 hPa 0,0 l/m 1,9 km/h (1 Bft) O-NO 67 9,4 C 13,1 C 2,6 km/h (1 Bft)
26.08.2013 19:50 12,8 C 80 % 1016,1 hPa 0,0 l/m 2,1 km/h (1 Bft) NO 45 9,4 C 12,8 C 2,6 km/h (1 Bft)
26.08.2013 19:55 12,7 C 81 % 1016,1 hPa 0,0 l/m 2,4 km/h (1 Bft) O 90 9,5 C 12,6 C 3,5 km/h (1 Bft)
26.08.2013 20:00 12,6 C 82 % 1016,2 hPa 0,0 l/m 2,7 km/h (1 Bft) O 90 9,6 C 12,5 C 4,2 km/h (1 Bft)
26.08.2013 20:05 12,2 C 82 % 1016,2 hPa 0,0 l/m 3,2 km/h (1 Bft) O 90 9,2 C 12,3 C 3,9 km/h (1 Bft)
26.08.2013 20:10 12,2 C 83 % 1016,2 hPa 0,0 l/m 3,2 km/h (1 Bft) O-NO 67 9,4 C 12,1 C 4,2 km/h (1 Bft)
26.08.2013 20:15 12,0 C 84 % 1016,2 hPa 0,0 l/m 3,4 km/h (1 Bft) O-NO 67 9,4 C 11,8 C 2,4 km/h (1 Bft)
26.08.2013 20:20 11,9 C 84 % 1016,4 hPa 0,0 l/m 3,2 km/h (1 Bft) O-NO 67 9,3 C 11,7 C 2,3 km/h (1 Bft)
26.08.2013 20:25 11,7 C 85 % 1016,4 hPa 0,0 l/m 2,6 km/h (1 Bft) O 90 9,3 C 11,4 C 1,9 km/h (1 Bft)
26.08.2013 20:30 11,6 C 85 % 1016,4 hPa 0,0 l/m 2,1 km/h (1 Bft) O-NO 67 9,2 C 11,3 C 2,1 km/h (1 Bft)
26.08.2013 20:35 11,5 C 85 % 1016,4 hPa 0,0 l/m 1,4 km/h (1 Bft) NO 45 9,1 C 11,1 C 2,1 km/h (1 Bft)
26.08.2013 20:40 11,4 C 85 % 1016,4 hPa 0,0 l/m 1,0 km/h (0 Bft) O-NO 67 9,0 C 10,9 C 0,0 km/h (0 Bft)
26.08.2013 20:45 11,0 C 85 % 1016,4 hPa 0,0 l/m 0,2 km/h (0 Bft) N 360 8,6 C 10,7 C 0,0 km/h (0 Bft)
26.08.2013 20:50 10,8 C 86 % 1016,4 hPa 0,0 l/m 0,0 km/h (0 Bft) N 360 8,6 C 10,5 C 0,0 km/h (0 Bft)
26.08.2013 20:55 10,6 C 86 % 1016,4 hPa 0,0 l/m 0,0 km/h (0 Bft) NO 45 8,4 C 10,3 C 0,0 km/h (0 Bft)
26.08.2013 21:00 10,5 C 86 % 1016,3 hPa 0,0 l/m 0,0 km/h (0 Bft) NO 45 8,3 C 10,1 C 0,0 km/h (0 Bft)
26.08.2013 21:05 10,6 C 87 % 1016,3 hPa 0,0 l/m 0,0 km/h (0 Bft) N-NO 22 8,5 C 10,0 C 0,0 km/h (0 Bft)
26.08.2013 21:10 10,8 C 87 % 1016,3 hPa 0,0 l/m 0,0 km/h (0 Bft) O 90 8,7 C 10,0 C 0,0 km/h (0 Bft)
26.08.2013 21:15 10,5 C 87 % 1016,3 hPa 0,0 l/m 0,0 km/h (0 Bft) NO 45 8,4 C 10,0 C 0,0 km/h (0 Bft)
26.08.2013 21:20 10,6 C 88 % 1016,2 hPa 0,0 l/m 0,3 km/h (0 Bft) NO 45 8,7 C 9,9 C 2,4 km/h (1 Bft)
26.08.2013 21:25 10,9 C 88 % 1016,2 hPa 0,0 l/m 1,6 km/h (1 Bft) NO 45 9,0 C 10,2 C 2,4 km/h (1 Bft)
26.08.2013 21:30 10,9 C 88 % 1016,2 hPa 0,0 l/m 2,3 km/h (1 Bft) NO 45 9,0 C 10,2 C 0,0 km/h (0 Bft)
26.08.2013 21:35 10,4 C 88 % 1016,2 hPa 0,0 l/m 1,0 km/h (0 Bft) O-SO 112 8,5 C 10,0 C 0,0 km/h (0 Bft)
26.08.2013 21:40 10,0 C 88 % 1016,4 hPa 0,0 l/m 0,2 km/h (0 Bft) O-SO 112 8,1 C 9,8 C 0,0 km/h (0 Bft)
26.08.2013 21:45 9,9 C 88 % 1016,4 hPa 0,0 l/m 0,0 km/h (0 Bft) O-NO 67 8,0 C 9,5 C 0,0 km/h (0 Bft)
26.08.2013 21:50 10,1 C 88 % 1016,4 hPa 0,0 l/m 0,0 km/h (0 Bft) O-NO 67 8,2 C 9,5 C 0,0 km/h (0 Bft)
26.08.2013 21:55 9,8 C 88 % 1016,4 hPa 0,0 l/m 0,0 km/h (0 Bft) N 360 7,9 C 9,5 C 0,0 km/h (0 Bft)
26.08.2013 22:00 9,6 C 88 % 1016,5 hPa 0,0 l/m 0,0 km/h (0 Bft) N 360 7,7 C 9,4 C 0,0 km/h (0 Bft)
26.08.2013 22:05 9,6 C 89 % 1016,5 hPa 0,0 l/m 0,0 km/h (0 Bft) O-NO 67 7,9 C 9,2 C 0,0 km/h (0 Bft)
26.08.2013 22:10 10,3 C 89 % 1016,5 hPa 0,0 l/m 0,5 km/h (0 Bft) O-NO 67 8,6 C 9,4 C 3,2 km/h (1 Bft)
26.08.2013 22:15 10,1 C 89 % 1016,5 hPa 0,0 l/m 0,6 km/h (0 Bft) N 360 8,4 C 9,6 C 0,0 km/h (0 Bft)
26.08.2013 22:20 9,7 C 89 % 1016,6 hPa 0,0 l/m 0,3 km/h (0 Bft) N 360 8,0 C 9,6 C 0,0 km/h (0 Bft)
26.08.2013 22:25 9,3 C 89 % 1016,6 hPa 0,0 l/m 0,0 km/h (0 Bft) N 360 7,6 C 9,2 C 0,0 km/h (0 Bft)
26.08.2013 22:30 9,2 C 89 % 1016,6 hPa 0,0 l/m 0,0 km/h (0 Bft) N 360 7,5 C 9,1 C 0,0 km/h (0 Bft)
26.08.2013 22:35 9,1 C 89 % 1016,6 hPa 0,0 l/m 0,0 km/h (0 Bft) N-NO 22 7,4 C 9,0 C 0,0 km/h (0 Bft)
26.08.2013 22:40 9,0 C 89 % 1016,3 hPa 0,0 l/m 0,0 km/h (0 Bft) O 90 7,3 C 8,7 C 0,0 km/h (0 Bft)
26.08.2013 22:45 9,0 C 89 % 1016,3 hPa 0,0 l/m 0,0 km/h (0 Bft) O-SO 112 7,3 C 8,7 C 0,0 km/h (0 Bft)
26.08.2013 22:50 8,8 C 89 % 1016,3 hPa 0,0 l/m 0,0 km/h (0 Bft) SO 135 7,1 C 8,6 C 0,0 km/h (0 Bft)
26.08.2013 22:55 8,7 C 89 % 1016,3 hPa 0,0 l/m 0,0 km/h (0 Bft) SO 135 7,0 C 8,5 C 0,0 km/h (0 Bft)
26.08.2013 23:00 8,6 C 89 % 1016,1 hPa 0,0 l/m 0,0 km/h (0 Bft) SO 135 6,9 C 8,5 C 0,0 km/h (0 Bft)
26.08.2013 23:05 8,8 C 90 % 1016,1 hPa 0,0 l/m 0,0 km/h (0 Bft) O-SO 112 7,3 C 8,4 C 0,0 km/h (0 Bft)
26.08.2013 23:10 8,9 C 90 % 1016,1 hPa 0,0 l/m 0,0 km/h (0 Bft) SW 225 7,4 C 8,5 C 0,0 km/h (0 Bft)
26.08.2013 23:15 8,8 C 90 % 1016,1 hPa 0,0 l/m 0,0 km/h (0 Bft) O 90 7,3 C 8,5 C 0,0 km/h (0 Bft)
26.08.2013 23:20 8,9 C 90 % 1016,3 hPa 0,0 l/m 0,0 km/h (0 Bft) NO 45 7,4 C 8,6 C 0,0 km/h (0 Bft)
26.08.2013 23:25 8,7 C 90 % 1016,3 hPa 0,0 l/m 0,0 km/h (0 Bft) SO 135 7,2 C 8,6 C 0,0 km/h (0 Bft)
26.08.2013 23:30 8,7 C 90 % 1016,3 hPa 0,0 l/m 0,0 km/h (0 Bft) SO 135 7,2 C 8,5 C 0,0 km/h (0 Bft)
26.08.2013 23:35 8,4 C 90 % 1016,3 hPa 0,0 l/m 0,0 km/h (0 Bft) SO 135 6,9 C 8,4 C 0,0 km/h (0 Bft)
26.08.2013 23:40 8,1 C 90 % 1016,5 hPa 0,0 l/m 0,0 km/h (0 Bft) SO 135 6,6 C 8,4 C 0,0 km/h (0 Bft)
26.08.2013 23:45 8,2 C 90 % 1016,5 hPa 0,0 l/m 0,0 km/h (0 Bft) SO 135 6,7 C 8,2 C 0,0 km/h (0 Bft)
26.08.2013 23:50 8,1 C 90 % 1016,5 hPa 0,0 l/m 0,0 km/h (0 Bft) W-SW 247 6,6 C 8,2 C 0,0 km/h (0 Bft)
26.08.2013 23:55 8,1 C 90 % 1016,5 hPa 0,0 l/m 0,0 km/h (0 Bft) W-SW 247 6,6 C 8,0 C 0,0 km/h (0 Bft)
_ Min-Zeit 23:55 13:15 05:55 - 23:55 - - 23:55 23:55 23:55
Minimum _ 8,1 C 53 % 1013,9 hPa - 0,0 km/h (0 Bft) - - 6,6 C 8,0 C 0,0 km/h (0 Bft)
_ Max-Zeit 13:15 07:50 14:35 23:55 15:50 - - 08:55 13:20 14:15
Maximum _ 19,0 C 93 % 1017,1 hPa 0,0 l/m 5,6 km/h
W-NW (1 Bft)
- - 12,2 C 21,2 C 13,7 km/h
W-NW (3 Bft)
Durchschnitt _ 12,9 C 79 % 1015,6 hPa #0,0 l/m 1,8 km/h (1 Bft) W-NW - 9,2 C 13,5 C 2,3 km/h (1 Bft)